[[{"header":{"parameterUnit":"m.s-1","parameterCategory":1,"la1":30.2991,"la2":30.254,"lo1":-89.0895,"lo2":-89.0444,"dy":0.0017,"dx":0.0017,"nx":28,"ny":28,"refTime":"2024-03-21T03:00:00:Z","depth":0,"parameterNumber":2,"parameterNumberName":"U-component_of_WINDS"},"data":[0,0,0,0,0,0,0,0,0,0,0,0,0,0,0,0,0,0,0,0,0,0,0,0,0,0,0,0,0,0,0,0,0,0,0,0,0,0,0,0,0,0,0,0,0,0,0,0,0,0,0,0,0,0,0,0,0,0,-0.7108,-0.7109,0,-0.7202,-0.7203,-0.7204,-0.7168,-0.7166,-0.7164,-0.7162,-0.7266,-0.7271,-0.7276,0,0,0,0,0,0,0,0,0,0,0,0,0,-0.6908,-0.6912,-0.7108,-0.7109,-0.711,-0.7202,-0.7203,-0.7204,-0.7168,-0.7166,-0.7163,-0.7161,-0.7264,-0.727,-0.7276,0,0,0,0,0,0,0,0,0,0,0,0,0,-0.6998,-0.6913,-0.7108,-0.7103,-0.7104,-0.7201,-0.7203,-0.7205,-0.7169,-0.7166,-0.7162,-0.7159,-0.7263,-0.727,-0.7277,-0.7387,0,0,-0.7299,-0.7302,0,0,0,0,0,0,0,0,-0.6993,-0.7005,-0.7103,-0.7104,-0.7104,-0.717,-0.7171,-0.7266,-0.717,-0.7145,-0.7161,-0.7158,-0.7237,-0.7246,-0.7271,-0.7392,-0.7396,-0.7299,-0.7304,-0.7307,-0.7309,0,0,0,0,0,0,0,-0.6987,-0.7001,-0.7145,-0.7104,-0.7105,-0.71,-0.7109,-0.7189,-0.7209,-0.7146,-0.7144,-0.7155,-0.7237,-0.7264,-0.7274,-0.7398,-0.7299,-0.7306,-0.731,-0.7313,-0.7616,-0.762,0,0,0,0,0,0,-0.6979,-0.6996,-0.7142,-0.7148,-0.7039,-0.7106,-0.7116,-0.7152,-0.7207,-0.7212,-0.7158,-0.7153,-0.7254,-0.7265,-0.7277,-0.7411,-0.7307,-0.7314,-0.7318,-0.7613,-0.7617,-0.7621,0,0,0,0,0,0,-0.6975,-0.6992,-0.7139,-0.7072,-0.709,-0.7113,-0.7154,-0.7156,-0.7183,-0.7216,-0.722,-0.7181,-0.7252,-0.7267,-0.736,-0.7414,-0.7317,-0.7324,-0.7608,-0.7614,-0.7619,-0.7678,0,0,0,0,0,0,-0.6969,-0.6991,-0.703,-0.7073,-0.7093,-0.7217,-0.7157,-0.716,-0.7194,-0.7189,-0.7239,-0.7244,-0.725,-0.7349,-0.7367,-0.7422,-0.7329,-0.7604,-0.7611,-0.7618,-0.7672,-0.7685,-0.7697,0,0,0,0,0,-0.6962,-0.7045,-0.7033,-0.705,-0.7143,-0.722,-0.7232,-0.7235,-0.7199,-0.7241,-0.7262,-0.7243,-0.7405,-0.7359,-0.7379,-0.7437,-0.76,-0.7609,-0.7617,-0.7666,-0.7683,-0.7697,0,0,0,0,0,0,-0.7011,-0.705,-0.7037,-0.7135,-0.7174,-0.7214,-0.7266,-0.7252,-0.7304,-0.7297,-0.7301,-0.7313,-0.7409,-0.7433,-0.738,-0.7548,-0.7498,-0.7511,-0.7528,-0.7544,-0.7557,-0.7549,-0.7335,0,0,0,0,0,-0.7033,-0.7089,-0.7122,-0.7206,-0.7225,-0.7243,-0.7276,-0.7275,-0.7317,-0.7334,-0.7362,-0.7406,-0.7467,-0.7507,-0.7565,-0.7675,-0.7687,-0.7726,-0.7738,-0.7748,-0.7759,-0.7821,-0.7839,-0.7649,-0.7649,-0.7649,0,0,-0.7079,-0.7108,-0.7143,-0.7216,-0.7246,-0.7307,-0.7257,-0.7324,-0.737,-0.7345,-0.7433,-0.7456,-0.7506,-0.7608,-0.7655,-0.7631,-0.7815,-0.7759,-0.7767,-0.7772,-0.7832,-0.785,-0.7866,-0.7655,-0.7653,-0.7653,0,0,-0.7195,-0.7221,-0.7294,-0.7325,-0.7371,-0.7382,-0.74,-0.7442,-0.7455,-0.7544,-0.7527,-0.7584,-0.7689,-0.7725,-0.7757,-0.7889,-0.7874,-0.7908,-0.7974,-0.8034,-0.8049,-0.8063,-0.8111,-0.8128,-0.7919,-0.7919,-0.792,0,-0.7247,-0.7336,-0.7334,-0.7402,-0.7436,-0.7414,-0.749,-0.7522,-0.7585,-0.761,-0.7582,-0.7714,-0.7746,-0.7857,-0.7889,-0.7916,-0.7938,-0.7902,-0.8047,-0.806,-0.8073,-0.8119,-0.8137,-0.7923,-0.7923,-0.7922,-0.7922,0,-0.7399,-0.7461,-0.7515,-0.7574,-0.7614,-0.7686,-0.7699,-0.774,-0.7737,-0.7752,-0.7844,-0.7882,-0.7948,-0.7974,-0.7972,-0.8087,-0.807,-0.8045,-0.7994,-0.8095,-0.8138,-0.8156,-0.7929,-0.7927,-0.7926,-0.7925,0,0,-0.7546,-0.7604,-0.7624,-0.7651,-0.7701,-0.775,-0.7823,-0.7885,-0.7921,-0.7967,-0.8029,-0.8119,-0.8096,-0.8133,-0.8135,-0.8188,-0.8292,-0.8157,-0.8158,-0.8181,-0.8423,-0.8441,-0.8461,-0.8283,-0.8286,-0.8289,-0.8419,0,-0.7666,-0.7789,-0.7791,-0.7906,-0.7965,-0.7946,-0.801,-0.8049,-0.8067,-0.8122,-0.8142,-0.8206,-0.817,-0.8192,-0.8244,-0.8268,-0.8341,-0.8259,-0.8343,-0.8346,-0.8331,-0.8484,-0.8503,-0.8623,-0.8435,-0.8438,-0.844,0,-0.782,-0.7868,-0.7988,-0.803,-0.8055,-0.8112,-0.817,-0.8222,-0.8268,-0.8277,-0.8319,-0.8314,-0.8392,-0.8339,-0.8448,-0.8393,-0.8428,-0.8446,-0.8451,-0.8458,-0.8399,-0.8496,-0.8662,-0.868,-0.8467,-0.8465,-0.8463,0,-0.7916,-0.8011,-0.8095,-0.8119,-0.8171,-0.8212,-0.8236,-0.8278,-0.8316,-0.8368,-0.8393,-0.8455,-0.8489,-0.8538,-0.8551,-0.8512,-0.8661,-0.8609,-0.8673,-0.8672,-0.8704,-0.8702,-0.8878,-0.8727,-0.8727,-0.8727,-0.8726,0,-0.8049,-0.8123,-0.8139,-0.8191,-0.8275,-0.8279,-0.8363,-0.8384,-0.8423,-0.8481,-0.8471,-0.8526,-0.854,-0.86,-0.8611,-0.87,-0.8716,-0.8728,-0.873,-0.8728,-0.8727,-0.8751,-0.8743,-0.8732,-0.873,-0.873,-0.8729,0,-0.8169,-0.8182,-0.8273,-0.8314,-0.8327,-0.8387,-0.8424,-0.8476,-0.8492,-0.8566,-0.8584,-0.8611,-0.8681,-0.8699,-0.8783,-0.8791,-0.8896,-0.8891,-0.888,-0.888,-0.8942,-0.8936,-0.9139,-0.9167,-0.8999,-0.9,-0.9001,0,-0.8252,-0.8308,-0.8356,-0.8393,-0.8418,-0.8478,-0.8516,-0.8524,-0.8565,-0.8622,-0.8668,-0.8736,-0.879,-0.8903,-0.8932,-0.8997,-0.8993,-0.906,-0.9003,-0.9,-0.8995,-0.8991,-0.8997,-0.9071,-0.9073,-0.9074,-0.9075,0,-0.8399,-0.8403,-0.8456,-0.8513,-0.8558,-0.8604,-0.8648,-0.868,-0.8695,-0.8742,-0.8811,-0.8854,-0.8939,-0.9008,-0.9074,-0.9102,-0.9093,-0.9093,-0.9111,-0.911,-0.9101,-0.9107,-0.8909,-0.9088,-0.9087,-0.9086,-0.9085,-0.9085,-0.8503,-0.8553,-0.8594,-0.8655,-0.8688,-0.873,-0.8781,-0.8803,-0.886,-0.8928,-0.8931,-0.9007,-0.9056,-0.9142,-0.9175,-0.9237,-0.9217,-0.9243,-0.925,-0.9256,-0.9262,-0.9092,-0.925,-0.9249,-0.9249,-0.9249,-0.9248,0,-0.8649,-0.8675,-0.8731,-0.8791,-0.884,-0.8825,-0.8874,-0.8916,-0.8982,-0.9027,-0.908,-0.9162,-0.9229,-0.9264,-0.9332,-0.9375,-0.9373,-0.9393,-0.9389,-0.9396,-0.9275,-0.9253,-0.9394,-0.9394,-0.9394,-0.9393,-0.9393,-0.9393,-0.873,-0.8814,-0.8823,-0.8925,-0.8951,-0.9024,-0.9053,-0.9093,-0.9128,-0.9219,-0.9273,-0.9295,-0.9337,-0.9408,-0.947,-0.9479,-0.9504,-0.9527,-0.9534,-0.942,-0.9405,-0.9391,-0.9369,-0.9532,-0.9533,-0.9649,-0.965,-0.9651]},{"header":{"parameterUnit":"m.s-1","parameterCategory":1,"la1":30.2991,"la2":30.254,"lo1":-89.0895,"lo2":-89.0444,"dy":0.0017,"dx":0.0017,"nx":28,"ny":28,"refTime":"2024-03-21T03:00:00:Z","depth":0,"parameterNumber":3,"parameterNumberName":"V-component_of_WINDS"},"data":[0,0,0,0,0,0,0,0,0,0,0,0,0,0,0,0,0,0,0,0,0,0,0,0,0,0,0,0,0,0,0,0,0,0,0,0,0,0,0,0,0,0,0,0,0,0,0,0,0,0,0,0,0,0,0,0,0,0,-1.7044,-1.7043,0,-1.6944,-1.6943,-1.6942,-1.686,-1.686,-1.6859,-1.6858,-1.675,-1.6748,-1.6746,0,0,0,0,0,0,0,0,0,0,0,0,0,-1.7158,-1.7156,-1.7044,-1.7043,-1.7041,-1.6944,-1.6943,-1.6941,-1.686,-1.6859,-1.6858,-1.6858,-1.675,-1.6748,-1.6745,0,0,0,0,0,0,0,0,0,0,0,0,0,-1.7088,-1.7155,-1.7044,-1.6989,-1.6984,-1.6944,-1.6943,-1.6941,-1.6861,-1.6859,-1.6858,-1.6857,-1.6751,-1.6748,-1.6745,-1.675,0,0,-1.6735,-1.6734,0,0,0,0,0,0,0,0,-1.7092,-1.7084,-1.6999,-1.6993,-1.6987,-1.6913,-1.6943,-1.6877,-1.6861,-1.6907,-1.6858,-1.6856,-1.6805,-1.6797,-1.6781,-1.6745,-1.6741,-1.6735,-1.6733,-1.6732,-1.6731,0,0,0,0,0,0,0,-1.7097,-1.7088,-1.7004,-1.6998,-1.699,-1.6968,-1.6956,-1.693,-1.6864,-1.6903,-1.6897,-1.6887,-1.6801,-1.6784,-1.6778,-1.6739,-1.6735,-1.6732,-1.673,-1.6729,-1.6698,-1.6699,0,0,0,0,0,0,-1.7111,-1.7092,-1.7007,-1.7001,-1.7037,-1.6967,-1.6954,-1.6938,-1.6864,-1.6852,-1.6888,-1.6883,-1.679,-1.6782,-1.6774,-1.6773,-1.6732,-1.6729,-1.6727,-1.6697,-1.6699,-1.67,0,0,0,0,0,0,-1.7114,-1.7104,-1.7011,-1.7045,-1.7031,-1.6966,-1.6949,-1.6937,-1.692,-1.6853,-1.684,-1.6883,-1.6789,-1.6778,-1.6756,-1.6768,-1.6727,-1.6725,-1.6696,-1.6698,-1.6699,-1.6772,0,0,0,0,0,0,-1.7118,-1.7106,-1.7109,-1.7046,-1.703,-1.6998,-1.6949,-1.6936,-1.6915,-1.6908,-1.6845,-1.6833,-1.6787,-1.6761,-1.6753,-1.6763,-1.6722,-1.6695,-1.6697,-1.6699,-1.6769,-1.6776,-1.6783,0,0,0,0,0,-1.7122,-1.7133,-1.711,-1.71,-1.7033,-1.6999,-1.699,-1.6939,-1.6917,-1.6918,-1.6874,-1.6835,-1.6768,-1.676,-1.675,-1.6759,-1.6694,-1.6696,-1.6699,-1.6765,-1.6775,-1.6783,0,0,0,0,0,0,-1.7198,-1.7124,-1.7097,-1.7089,-1.7051,-1.6986,-1.6986,-1.6951,-1.6917,-1.6912,-1.6848,-1.6834,-1.6818,-1.6786,-1.6778,-1.6758,-1.6725,-1.6726,-1.678,-1.6788,-1.6795,-1.6803,-1.672,0,0,0,0,0,-1.7214,-1.7195,-1.713,-1.7129,-1.7111,-1.7052,-1.7035,-1.6999,-1.6957,-1.694,-1.6895,-1.6853,-1.6822,-1.6803,-1.6772,-1.6763,-1.6747,-1.6764,-1.6771,-1.6778,-1.6778,-1.6768,-1.6775,-1.6708,-1.6708,-1.6708,0,0,-1.7247,-1.7204,-1.7195,-1.7143,-1.711,-1.7089,-1.7039,-1.702,-1.7003,-1.6936,-1.6913,-1.6878,-1.6827,-1.6812,-1.6802,-1.6784,-1.6793,-1.6781,-1.6786,-1.6783,-1.6772,-1.6778,-1.6784,-1.6709,-1.6709,-1.6709,0,0,-1.7295,-1.7262,-1.7256,-1.7223,-1.7174,-1.7134,-1.7132,-1.7072,-1.7047,-1.7023,-1.6971,-1.6949,-1.6898,-1.6863,-1.6839,-1.6872,-1.6833,-1.6863,-1.69,-1.6891,-1.6896,-1.69,-1.691,-1.6914,-1.6864,-1.6864,-1.6864,0,-1.7341,-1.731,-1.7257,-1.724,-1.7217,-1.7157,-1.7149,-1.7119,-1.7061,-1.7046,-1.7027,-1.696,-1.6922,-1.6896,-1.6904,-1.6887,-1.688,-1.687,-1.69,-1.6904,-1.6907,-1.6915,-1.6919,-1.6868,-1.6868,-1.6867,-1.6867,0,-1.7368,-1.7347,-1.7347,-1.7294,-1.7271,-1.7259,-1.7201,-1.7184,-1.7149,-1.7111,-1.7085,-1.7037,-1.6993,-1.6984,-1.6949,-1.6952,-1.6942,-1.6913,-1.6878,-1.6918,-1.6924,-1.6927,-1.6873,-1.6872,-1.6871,-1.687,0,0,-1.7462,-1.7379,-1.738,-1.7354,-1.7294,-1.7275,-1.7258,-1.7217,-1.7202,-1.7164,-1.7146,-1.7104,-1.7075,-1.7048,-1.7008,-1.7001,-1.7026,-1.6971,-1.6969,-1.6981,-1.7023,-1.7045,-1.705,-1.7001,-1.7001,-1.7002,-1.7027,0,-1.75,-1.7469,-1.742,-1.7404,-1.7382,-1.7324,-1.7309,-1.7269,-1.7232,-1.7205,-1.7163,-1.7133,-1.7099,-1.7082,-1.7072,-1.7026,-1.7034,-1.7023,-1.6981,-1.698,-1.6995,-1.7053,-1.7077,-1.7103,-1.7029,-1.7029,-1.703,0,-1.754,-1.7505,-1.7488,-1.7428,-1.7417,-1.7405,-1.7361,-1.7338,-1.729,-1.7263,-1.7231,-1.7188,-1.7164,-1.7134,-1.7098,-1.7092,-1.7072,-1.7046,-1.7046,-1.7039,-1.7007,-1.7046,-1.711,-1.7114,-1.7034,-1.7033,-1.7033,0,-1.7608,-1.7557,-1.754,-1.752,-1.7449,-1.7441,-1.7411,-1.7362,-1.734,-1.7301,-1.7285,-1.7244,-1.722,-1.7188,-1.7133,-1.7117,-1.7102,-1.7068,-1.7077,-1.7078,-1.7076,-1.7076,-1.7136,-1.7065,-1.7065,-1.7065,-1.7065,0,-1.7654,-1.7646,-1.7569,-1.7559,-1.7546,-1.7488,-1.7476,-1.744,-1.7396,-1.7375,-1.7321,-1.7302,-1.7232,-1.7203,-1.716,-1.7135,-1.7126,-1.7101,-1.7089,-1.7105,-1.7108,-1.709,-1.7086,-1.7066,-1.7066,-1.7065,-1.7065,0,-1.7729,-1.7678,-1.7654,-1.7589,-1.7573,-1.7566,-1.7509,-1.7494,-1.7453,-1.7427,-1.7417,-1.7352,-1.7316,-1.7258,-1.7204,-1.7175,-1.7157,-1.7139,-1.7174,-1.7167,-1.7178,-1.7177,-1.7226,-1.7229,-1.7159,-1.716,-1.716,0,-1.7761,-1.7753,-1.7687,-1.767,-1.7643,-1.7616,-1.7592,-1.7534,-1.7511,-1.7455,-1.7446,-1.7406,-1.737,-1.7314,-1.726,-1.7217,-1.7196,-1.7217,-1.719,-1.7205,-1.7194,-1.7195,-1.7192,-1.7223,-1.7224,-1.7225,-1.7226,0,-1.7824,-1.7798,-1.7768,-1.7729,-1.7703,-1.7669,-1.7631,-1.762,-1.7552,-1.7529,-1.7492,-1.7465,-1.7409,-1.7368,-1.7318,-1.7283,-1.7242,-1.7235,-1.7234,-1.7249,-1.7269,-1.7256,-1.719,-1.7234,-1.7233,-1.7232,-1.7232,-1.7231,-1.7876,-1.7866,-1.7818,-1.7785,-1.7751,-1.7717,-1.77,-1.7657,-1.7626,-1.7577,-1.7544,-1.7508,-1.7456,-1.7385,-1.7352,-1.7321,-1.7303,-1.7303,-1.7302,-1.7303,-1.7308,-1.7276,-1.7311,-1.7311,-1.7311,-1.7311,-1.731,0,-1.7934,-1.79,-1.7871,-1.7821,-1.7795,-1.7761,-1.7717,-1.7696,-1.7666,-1.7623,-1.7589,-1.7544,-1.7504,-1.7447,-1.7401,-1.7387,-1.7366,-1.7376,-1.7376,-1.7368,-1.7327,-1.7332,-1.7394,-1.7394,-1.7394,-1.7394,-1.7394,-1.7393,-1.7962,-1.7941,-1.791,-1.787,-1.7835,-1.7802,-1.7779,-1.7746,-1.7711,-1.7665,-1.7632,-1.7595,-1.7545,-1.7495,-1.7455,-1.7438,-1.7423,-1.7439,-1.7417,-1.7379,-1.7371,-1.7364,-1.7368,-1.7437,-1.7437,-1.746,-1.746,-1.746]}]]